Date String (YYYY-MM-DD hh:mm:ss) UTC,Instrument flags,Ambient pressure (hPa),Sample flow (lpm),Bypass flow (lpm),Sample temperature (°C),Ambient temperature (°C),ASC tube jacket temperature (°C),LED temperature (°C),Box temperature (°C),Sample RH (%),Span deviation,Mass concentration (μg/m³),Mass concentration (μg/m³),Mass concentration (μg/m³)
DateTimeUTC,F1_M11,P_M11,Q1_M11,Q2_M11,T1_M11,T2_M11,T3_M11,T4_M11,T5_M11,U1_M11,ZSPAN_M11,X0_M11,X2_M11,X1_M11
2021-08-20 15:00:00,,0824.7,5.00,0.00,29.1,28.3,00.0,38.2,30.8,16.6,0002.1,0021.77,0015.27,0014.46
2021-08-20 15:01:00,,0824.7,4.99,0.00,29.1,28.3,00.0,38.2,30.9,15.6,0002.3,0022.21,0015.30,0014.51
2021-08-20 15:02:00,,0824.7,5.01,0.00,29.1,28.3,00.0,38.2,30.9,15.7,0002.1,0022.54,0015.36,0014.56
2021-08-20 15:03:00,,0824.7,5.00,0.00,29.1,28.4,00.0,38.2,30.9,15.2,0002.3,0022.66,0015.44,0014.65
2021-08-20 15:04:00,,0824.6,5.01,0.00,29.2,28.3,00.0,38.3,30.9,14.7,0002.3,0022.39,0015.49,0014.73
2021-08-20 15:05:00,,0824.6,5.00,0.00,29.2,28.3,00.0,38.3,31.0,14.5,0002.3,0022.10,0015.59,0014.82
2021-08-20 15:06:00,,0824.6,5.00,0.00,29.2,28.3,00.0,38.3,31.0,14.8,0002.2,0021.99,0015.62,0014.86
2021-08-20 15:07:00,,0824.7,4.99,0.00,29.2,28.4,00.0,38.3,31.0,15.4,0002.2,0022.07,0015.59,0014.82
2021-08-20 15:08:00,,0824.4,5.00,0.00,29.2,28.4,00.0,38.3,31.0,15.5,0002.3,0022.10,0015.56,0014.79
2021-08-20 15:09:00,,0824.5,4.99,0.00,29.3,28.4,00.0,38.3,31.0,15.2,0002.6,0021.89,0015.49,0014.74
2021-08-20 15:10:00,,0824.5,5.00,0.00,29.3,28.5,00.0,38.3,31.1,15.6,0002.6,0021.75,0015.46,0014.71
2021-08-20 15:11:00,,0824.6,5.00,0.00,29.3,28.5,00.0,38.3,31.1,16.4,0002.7,0021.77,0015.42,0014.65
2021-08-20 15:12:00,,0824.7,4.99,0.00,29.3,28.4,00.0,38.4,31.1,15.9,0002.7,0021.25,0015.37,0014.60
2021-08-20 15:13:00,,0824.5,5.01,0.00,29.3,28.4,00.0,38.4,31.1,15.3,0002.9,0021.48,0015.36,0014.60
2021-08-20 15:14:00,,0824.9,5.00,0.00,29.3,28.5,00.0,38.4,31.1,14.3,0003.0,0021.45,0015.35,0014.59
2021-08-20 15:15:00,,0824.7,5.00,0.00,29.3,28.5,00.0,38.4,31.1,14.4,0003.1,0021.94,0015.35,0014.59
2021-08-20 15:16:00,,0824.5,4.99,0.00,29.4,28.4,00.0,38.4,31.1,14.4,0003.1,0022.32,0015.29,0014.55
2021-08-20 15:17:00,,0824.6,5.01,0.00,29.4,28.4,00.0,38.4,31.1,14.3,0003.2,0022.19,0015.24,0014.50
2021-08-20 15:18:00,,0824.5,4.99,0.00,29.4,28.4,00.0,38.5,31.1,14.4,0003.4,0022.07,0015.21,0014.49
2021-08-20 15:19:00,,0824.4,5.02,0.00,29.4,28.4,00.0,38.5,31.1,14.6,0003.2,0021.90,0015.17,0014.48
2021-08-20 15:20:00,,0824.4,4.99,0.00,29.4,28.4,00.0,38.5,31.1,14.6,0003.1,0021.83,0015.16,0014.48
2021-08-20 15:21:00,,0824.4,5.01,0.00,29.4,28.4,00.0,38.5,31.1,14.8,0003.2,0021.75,0015.14,0014.47
2021-08-20 15:22:00,,0824.5,4.99,0.00,29.4,28.4,00.0,38.5,31.1,14.9,0003.1,0021.64,0015.13,0014.48
2021-08-20 15:23:00,,0824.4,5.00,0.00,29.4,28.4,00.0,38.5,31.1,14.6,0002.9,0021.93,0015.17,0014.50
2021-08-20 15:24:00,,0824.4,5.01,0.00,29.4,28.4,00.0,38.5,31.0,14.6,0002.7,0021.66,0015.14,0014.48
2021-08-20 15:25:00,,0824.5,5.00,0.00,29.4,28.4,00.0,38.5,31.1,14.8,0002.5,0021.79,0015.21,0014.48
2021-08-20 15:26:00,,0824.5,5.01,0.00,29.4,28.4,00.0,38.5,31.1,15.1,0002.5,0021.90,0015.26,0014.48
2021-08-20 15:27:00,,0824.4,4.99,0.00,29.4,28.4,00.0,38.5,31.1,15.2,0002.7,0021.62,0015.30,0014.51
2021-08-20 15:28:00,,0824.4,4.99,0.00,29.4,28.4,00.0,38.5,31.1,14.5,0002.7,0021.63,0015.32,0014.51
2021-08-20 15:29:00,,0824.6,5.00,0.00,29.4,28.4,00.0,38.6,31.1,14.1,0002.7,0021.63,0015.35,0014.51
2021-08-20 15:30:00,,0824.7,5.00,0.00,29.4,28.4,00.0,38.6,31.1,14.7,0002.9,0021.70,0015.39,0014.53
2021-08-20 15:31:00,,0824.4,5.01,0.00,29.4,28.4,00.0,38.6,31.1,14.7,0002.9,0021.79,0015.43,0014.55
2021-08-20 15:32:00,,0824.4,4.99,0.00,29.4,28.4,00.0,38.6,31.1,14.5,0003.0,0022.08,0015.44,0014.55
2021-08-20 15:33:00,,0824.3,5.01,0.00,29.4,28.4,00.0,38.6,31.2,15.5,0002.9,0022.37,0015.47,0014.55
2021-08-20 15:34:00,,0824.4,5.01,0.00,29.4,28.5,00.0,38.6,31.2,14.8,0003.1,0022.22,0015.46,0014.52
2021-08-20 15:35:00,,0824.3,4.99,0.00,29.4,28.5,00.0,38.6,31.2,14.5,0003.2,0021.88,0015.45,0014.51
2021-08-20 15:36:00,,0824.3,5.01,0.00,29.4,28.5,00.0,38.6,31.2,14.9,0003.2,0021.63,0015.36,0014.49
2021-08-20 15:37:00,,0824.3,5.00,0.00,29.5,28.5,00.0,38.6,31.2,14.7,0003.3,0021.31,0015.29,0014.49
2021-08-20 15:38:00,,0824.3,4.99,0.00,29.5,28.5,00.0,38.6,31.2,14.4,0003.3,0020.97,0015.30,0014.47
2021-08-20 15:39:00,,0824.3,5.00,0.00,29.4,28.6,00.0,38.6,31.2,14.6,0003.3,0021.39,0015.36,0014.49
2021-08-20 15:40:00,,0824.4,5.02,0.00,29.4,28.6,00.0,38.6,31.2,14.5,0003.2,0021.77,0015.38,0014.47
2021-08-20 15:41:00,,0824.2,4.99,0.00,29.4,28.6,00.0,38.6,31.1,14.8,0003.2,0021.82,0015.39,0014.46
2021-08-20 15:42:00,,0824.3,5.00,0.00,29.4,28.6,00.0,38.6,31.1,14.6,0003.2,0022.06,0015.49,0014.44
2021-08-20 15:43:00,,0824.3,5.01,0.00,29.4,28.6,00.0,38.6,31.1,14.9,0003.2,0022.46,0015.53,0014.41
2021-08-20 15:44:00,,0824.3,4.98,0.00,29.4,28.5,00.0,38.6,31.1,14.9,0003.2,0022.94,0015.59,0014.40
2021-08-20 15:45:00,,0824.2,5.01,0.00,29.4,28.5,00.0,38.6,31.1,14.6,0003.2,0023.47,0015.73,0014.40
2021-08-20 15:46:00,,0824.1,5.01,0.00,29.4,28.6,00.0,38.6,31.1,14.7,0003.0,0024.05,0015.81,0014.39
2021-08-20 15:47:00,,0824.4,4.99,0.00,29.4,28.6,00.0,38.6,31.1,14.7,0002.9,0024.61,0015.90,0014.38
2021-08-20 15:48:00,,0824.4,4.99,0.00,29.4,28.5,00.0,38.6,31.1,15.4,0002.9,0025.06,0016.00,0014.35
2021-08-20 15:49:00,,0824.5,5.00,0.00,29.4,28.4,00.0,38.6,31.1,15.3,0002.8,0025.08,0015.96,0014.30
2021-08-20 15:50:00,,0824.5,5.00,0.00,29.4,28.4,00.0,38.6,31.0,15.3,0002.7,0024.86,0015.87,0014.21
2021-08-20 15:51:00,,0824.6,4.99,0.00,29.4,28.4,00.0,38.6,31.0,15.4,0002.6,0024.99,0015.78,0014.15
2021-08-20 15:52:00,,0824.5,5.01,0.00,29.4,28.4,00.0,38.6,31.0,15.5,0002.7,0024.81,0015.71,0014.08
2021-08-20 15:53:00,,0824.4,4.99,0.00,29.4,28.4,00.0,38.6,31.0,15.1,0002.6,0024.47,0015.55,0014.02
2021-08-20 15:54:00,,0824.4,5.02,0.00,29.4,28.4,00.0,38.6,31.1,15.4,0002.5,0024.06,0015.45,0013.95
2021-08-20 15:55:00,,0824.4,5.00,0.00,29.4,28.4,00.0,38.6,31.1,15.5,0002.3,0024.07,0015.28,0013.87
2021-08-20 15:56:00,,0824.2,5.00,0.00,29.4,28.4,00.0,38.6,31.1,15.1,0002.3,0023.67,0015.09,0013.81
2021-08-20 15:57:00,,0824.3,4.99,0.00,29.4,28.5,00.0,38.6,31.1,14.9,0002.4,0023.85,0014.98,0013.73
2021-08-20 15:58:00,,0824.3,5.02,0.00,29.4,28.4,00.0,38.6,31.1,14.8,0002.5,0023.31,0014.83,0013.67
2021-08-20 15:59:00,,0824.3,4.99,0.00,29.4,28.4,00.0,38.6,31.1,15.2,0002.5,0022.92,0014.68,0013.62
